"startDT [UTC]","vpos","CH4 [ppm]","stdev(CH4) [ppm]","CO2 [ppm]","stdev(CO2) [ppm]","H2O [ppm]","stdev(H2O)","p_LGR [torr]","T_LGR [C]","mt1_LGR [us]","mt2_LGR [us]","T_ECpre [C]","T_EC1 [C]","T_EC2 [C]","p_inlet [hPa]","p_in [hPa]","p_out [hPa]","T_inlet [C]","RH_inlet [%]","dwpt_inlet [C]","T_vent [C]","RH_vent [%]","dwpt_vent [C]","flow_vent [l min-1]","flow_inlet [l min-1]","dwpt_sample [C]","T_room [C]"
2012-12-29 00:00:00,0.0,1.9199,0.0009,-1.00,0.00,-1.0,0.0,138.15,26.14,24.62,36.49,0.04,-272.75,-272.74,-40,553,-948,20.8,1.5,-33.0,20.9,1.6,-32.6,5.73,2.44,-31.1,25.9
2012-12-29 00:01:00,0.0,1.9199,0.0009,-1.00,0.00,-1.0,0.0,138.15,26.14,24.62,36.48,0.04,-272.75,-272.75,-39,553,-948,20.8,1.5,-33.0,20.8,1.6,-32.6,5.73,2.56,-31.1,25.9
2012-12-29 00:02:00,0.0,1.9197,0.0010,-1.00,0.00,-1.0,0.0,138.15,26.14,24.62,36.48,0.04,-272.75,-272.75,-40,553,-948,20.8,1.5,-33.0,20.8,1.6,-32.7,5.73,2.43,-31.2,25.6
2012-12-29 00:03:00,0.0,1.9199,0.0010,-1.00,0.00,-1.0,0.0,138.16,26.14,24.62,36.48,0.04,-272.74,-272.75,-40,552,-948,20.7,1.5,-33.1,20.6,1.6,-32.7,5.73,2.41,-31.4,25.3
2012-12-29 00:04:00,0.0,1.9193,0.0011,-1.00,0.00,-1.0,0.0,138.16,26.12,24.62,36.48,0.04,-272.75,-272.74,-39,552,-947,20.5,1.5,-33.2,20.4,1.6,-32.8,5.73,2.58,-31.7,25.1
2012-12-29 00:05:00,0.0,1.9190,0.0009,-1.00,0.00,-1.0,0.0,138.17,26.10,24.63,36.48,0.04,-272.74,-272.75,-40,551,-947,20.3,1.5,-33.3,20.2,1.6,-32.8,5.73,2.40,-31.9,24.9
2012-12-29 00:06:00,0.0,1.9192,0.0009,-1.00,0.00,-1.0,0.0,138.17,26.08,24.62,36.48,0.04,-272.75,-272.75,-39,550,-947,20.2,1.6,-33.2,20.1,1.6,-32.9,5.73,2.51,-32.1,24.7
2012-12-29 00:07:00,0.0,1.9188,0.0007,-1.00,0.00,-1.0,0.0,138.18,26.06,24.62,36.48,0.04,-272.75,-272.74,-40,549,-947,20.0,1.6,-33.2,19.9,1.7,-32.8,5.73,2.49,-32.1,24.5
2012-12-29 00:08:00,0.0,1.9187,0.0008,-1.00,0.00,-1.0,0.0,138.18,26.02,24.62,36.48,0.04,-272.75,-272.74,-39,549,-947,19.9,1.6,-33.1,19.8,1.7,-32.8,5.73,2.48,-32.4,24.3
2012-12-29 00:09:00,0.0,1.9180,0.0009,-1.00,0.00,-1.0,0.0,138.19,25.98,24.62,36.47,0.04,-272.75,-272.75,-39,548,-947,19.8,1.6,-33.1,19.6,1.7,-32.8,5.73,2.43,-32.7,24.2
2012-12-29 00:10:00,0.0,1.9175,0.0009,-1.00,0.00,-1.0,0.0,138.19,25.94,24.62,36.48,0.04,-272.75,-272.75,-39,548,-947,19.6,1.7,-33.0,19.5,1.7,-32.7,5.73,2.60,-33.0,24.1
2012-12-29 00:11:00,0.0,1.9174,0.0009,-1.00,0.00,-1.0,0.0,138.20,25.89,24.62,36.47,0.04,-272.75,-272.75,-39,547,-947,19.4,1.7,-33.0,19.2,1.7,-32.7,5.73,2.49,-33.4,24.0
2012-12-29 00:12:00,0.0,1.9158,0.0009,-1.00,0.00,-1.0,0.0,138.21,25.84,24.62,36.47,0.04,-272.75,-272.75,-39,547,-947,19.1,1.7,-33.0,19.0,1.8,-32.7,5.73,2.43,-33.9,23.5
2012-12-29 00:13:00,0.0,,,,,,,,,,,0.04,-272.75,-272.75,-38,581,-965,18.9,1.7,-33.0,18.8,1.8,-32.6,5.73,2.43,-34.0,23.3
"startDT [UTC]","vpos","CH4 [ppm]","stdev(CH4) [ppm]","CO2 [ppm]","stdev(CO2) [ppm]","H2O [ppm]","stdev(H2O)","p_LGR [torr]","T_LGR [C]","mt1_LGR [us]","mt2_LGR [us]","T_ECpre [C]","T_EC1 [C]","T_EC2 [C]","p_inlet [hPa]","p_in [hPa]","p_out [hPa]","T_inlet [C]","RH_inlet [%]","dwpt_inlet [C]","T_vent [C]","RH_vent [%]","dwpt_vent [C]","flow_vent [l min-1]","flow_inlet [l min-1]","dwpt_sample [C]","T_room [C]"
2012-12-29 00:18:00,0.0,1.9140,0.0011,403.68,0.29,-1.0,0.0,138.26,25.53,24.60,36.30,0.04,-272.74,-272.75,-37,544,-945,17.8,1.9,-33.0,17.7,1.9,-32.8,5.73,2.61,-35.8,22.7
2012-12-29 00:19:00,0.0,1.9133,0.0010,403.70,0.26,-1.0,0.0,138.26,25.47,24.60,36.30,0.04,-272.75,-272.75,-38,544,-945,17.6,1.9,-33.1,17.5,1.9,-32.9,5.73,2.45,-36.0,22.4
2012-12-29 00:20:00,0.0,1.9130,0.0009,403.65,0.29,-1.0,0.0,138.26,25.42,24.61,36.30,0.04,-272.75,-272.74,-38,543,-944,17.3,1.9,-33.2,17.3,1.9,-32.9,5.73,2.35,-36.3,22.2
2012-12-29 00:21:00,0.0,1.9128,0.0009,403.62,0.31,-1.0,0.0,138.26,25.36,24.60,36.30,0.04,-272.74,-272.75,-37,543,-944,17.1,1.9,-33.1,17.1,2.0,-32.9,5.73,2.72,-36.6,22.0
2012-12-29 00:22:00,0.0,1.9121,0.0010,403.58,0.25,-1.0,0.0,138.26,25.31,24.61,36.30,0.04,-272.75,-272.75,-38,542,-943,16.9,1.9,-33.2,16.9,2.0,-33.0,5.73,2.57,-36.8,21.7
2012-12-29 00:23:00,0.0,1.9116,0.0010,403.61,0.28,-1.0,0.0,138.27,25.26,24.61,36.30,0.04,-272.75,-272.75,-37,541,-943,16.7,1.9,-33.3,16.7,2.0,-33.0,5.73,2.31,-37.0,21.5
2012-12-29 00:24:00,0.0,1.9115,0.0009,403.62,0.25,-1.0,0.0,138.27,25.20,24.61,36.30,0.04,-272.75,-272.74,-37,541,-943,16.5,2.0,-33.3,16.5,2.0,-33.0,5.73,2.83,-37.0,21.4
2012-12-29 00:25:00,0.0,1.9114,0.0009,403.61,0.29,-1.0,0.0,138.27,25.15,24.60,36.30,0.04,-272.75,-272.74,-37,540,-943,16.5,2.0,-33.3,16.5,2.0,-32.9,5.73,2.39,-36.9,21.3
2012-12-29 00:26:00,0.0,1.9113,0.0011,403.66,0.31,-1.0,0.0,138.27,25.11,24.60,36.30,0.04,-272.75,-272.75,-36,540,-943,16.4,2.0,-33.2,16.4,2.0,-32.9,5.73,2.45,-36.8,21.2
2012-12-29 00:27:00,0.0,1.9115,0.0010,403.73,0.27,-1.0,0.0,138.26,25.07,24.60,36.30,0.04,-272.75,-272.74,-38,540,-943,16.3,2.0,-33.2,16.4,2.1,-32.9,5.73,2.78,-36.7,21.1
2012-12-29 00:28:00,0.0,1.9116,0.0010,403.67,0.23,-1.0,0.0,138.27,25.03,24.60,36.30,0.04,-272.74,-272.75,-36,539,-943,16.3,2.0,-33.2,16.3,2.1,-32.9,5.73,2.38,-36.7,21.0
2012-12-29 00:29:00,0.0,1.9114,0.0011,403.67,0.30,-1.0,0.0,138.27,24.99,24.60,36.30,0.04,-272.74,-272.75,-37,539,-942,16.2,2.0,-33.1,16.2,2.1,-32.9,5.73,2.56,-36.9,20.7
2012-12-29 00:30:00,0.0,1.9109,0.0008,403.68,0.30,-1.0,0.0,138.27,24.94,24.60,36.30,0.04,-272.74,-272.74,-36,539,-942,16.0,2.1,-33.1,16.0,2.1,-32.8,5.73,2.64,-37.1,20.5
2012-12-29 00:31:00,0.0,1.9107,0.0009,403.62,0.26,-1.0,0.0,138.27,24.90,24.60,36.30,0.04,-272.74,-272.74,-37,538,-941,15.8,2.1,-33.1,15.8,2.2,-32.8,5.73,2.45,-37.3,20.3
2012-12-29 00:32:00,0.0,1.9100,0.0009,403.60,0.25,-1.0,0.0,138.27,24.85,24.60,36.30,0.04,-272.75,-272.74,-35,538,-941,15.5,2.1,-33.0,15.6,2.2,-32.7,5.73,2.59,-37.6,20.1
2012-12-29 00:33:00,0.0,1.9102,0.0009,403.74,0.26,-1.0,0.0,138.27,24.80,24.60,36.30,0.04,-272.74,-272.75,-37,537,-941,15.3,2.2,-33.0,15.4,2.2,-32.7,5.73,2.67,-37.8,19.9
2012-12-29 00:34:00,0.0,1.9099,0.0010,403.72,0.23,-1.0,0.0,138.28,24.76,24.60,36.30,0.04,-272.74,-272.74,-35,537,-940,15.1,2.2,-32.9,15.2,2.3,-32.6,5.73,2.29,-38.0,19.8
2012-12-29 00:35:00,0.0,1.9098,0.0007,403.68,0.24,-1.0,0.0,138.28,24.71,24.60,36.30,0.04,-272.73,-272.74,-35,537,-940,14.9,2.3,-32.9,15.0,2.3,-32.6,5.73,2.99,-38.1,19.5
2012-12-29 00:36:00,0.0,1.9092,0.0011,403.64,0.21,-1.0,0.0,138.28,24.65,24.60,36.29,0.04,-272.74,-272.74,-37,536,-940,14.8,2.3,-32.9,14.9,2.3,-32.6,5.73,2.14,-38.2,19.4
2012-12-29 00:37:00,0.0,1.9091,0.0009,403.56,0.21,-1.0,0.0,138.29,24.60,24.60,36.29,0.04,-272.74,-272.74,-34,536,-940,14.6,2.3,-32.9,14.7,2.4,-32.5,5.73,2.93,-38.3,19.3
2012-12-29 00:38:00,0.0,1.9086,0.0009,403.62,0.26,-1.0,0.0,138.29,24.55,24.60,36.29,0.04,-272.74,-272.74,-35,535,-940,14.5,2.3,-32.9,14.5,2.4,-32.5,5.73,2.39,-38.4,19.1
2012-12-29 00:39:00,0.0,1.9083,0.0008,403.49,0.20,-1.0,0.0,138.29,24.49,24.60,36.30,0.04,-272.74,-272.74,-36,535,-940,14.4,2.3,-32.9,14.5,2.4,-32.6,5.73,2.54,-38.5,19.0
2012-12-29 00:40:00,0.0,1.9081,0.0008,403.55,0.25,-1.0,0.0,138.29,24.44,24.60,36.29,0.04,-272.74,-272.74,-33,535,-940,14.3,2.4,-32.8,14.4,2.4,-32.5,5.73,2.79,-38.4,18.9
2012-12-29 00:41:00,0.0,1.9083,0.0009,403.47,0.25,-1.0,0.0,138.29,24.39,24.60,36.29,0.04,-272.74,-272.74,-36,534,-940,14.3,2.4,-32.8,14.4,2.4,-32.5,5.73,2.31,-38.2,18.9
2012-12-29 00:42:00,0.0,1.9083,0.0010,403.48,0.26,-1.0,0.0,138.29,24.35,24.60,36.30,0.04,-272.74,-272.74,-34,534,-940,14.2,2.4,-32.8,14.4,2.4,-32.4,5.73,2.79,-38.1,18.8
2012-12-29 00:43:00,0.0,1.9089,0.0010,403.50,0.26,-1.0,0.0,138.29,24.30,24.60,36.29,0.04,-272.74,-272.74,-35,533,-940,14.2,2.4,-32.7,14.3,2.4,-32.5,5.73,2.48,-37.9,18.8
2012-12-29 00:44:00,0.0,1.9090,0.0008,403.47,0.26,-1.0,0.0,138.28,24.26,24.60,36.30,0.04,-272.74,-272.74,-34,533,-940,14.2,2.4,-32.7,14.3,2.4,-32.4,5.73,2.50,-37.7,18.8
2012-12-29 00:45:00,0.0,1.9098,0.0007,403.57,0.26,-1.0,0.0,138.28,24.23,24.59,36.29,0.04,-272.73,-272.74,-35,533,-940,14.2,2.4,-32.7,14.4,2.5,-32.3,5.73,2.78,-37.6,18.8
2012-12-29 00:46:00,0.0,1.9099,0.0007,403.60,0.27,-1.0,0.0,138.28,24.19,24.60,36.29,0.04,-272.74,-272.74,-33,533,-940,14.2,2.4,-32.8,14.4,2.4,-32.4,5.73,2.28,-37.4,18.8
2012-12-29 00:47:00,0.0,1.9100,0.0009,403.66,0.31,-1.0,0.0,138.28,24.17,24.60,36.29,0.04,-272.74,-272.74,-35,533,-940,14.2,2.5,-32.4,14.5,2.5,-32.3,5.73,2.74,-37.3,18.9
2012-12-29 00:48:00,0.0,1.9107,0.0010,403.65,0.26,-1.0,0.0,138.28,24.14,24.60,36.30,0.04,-272.74,-272.74,-34,533,-941,14.2,2.4,-32.7,14.4,2.5,-32.3,5.73,2.63,-37.1,18.9
2012-12-29 00:49:00,0.0,1.9107,0.0009,403.74,0.28,-1.0,0.0,138.27,24.11,24.60,36.30,0.04,-272.74,-272.74,-34,533,-941,14.2,2.4,-32.7,14.4,2.5,-32.3,5.73,2.33,-37.0,18.9
2012-12-29 00:50:00,0.0,1.9116,0.0009,403.81,0.27,-1.0,0.0,138.27,24.09,24.60,36.29,0.04,-272.74,-272.74,-35,532,-940,14.3,2.4,-32.6,14.5,2.5,-32.3,5.73,2.63,-36.9,19.0
2012-12-29 00:51:00,0.0,1.9121,0.0008,403.79,0.27,-1.0,0.0,138.27,24.07,24.60,36.30,0.04,-272.74,-272.73,-34,533,-940,14.3,2.4,-32.7,14.5,2.5,-32.2,5.73,2.71,-36.8,19.0
2012-12-29 00:52:00,0.0,1.9124,0.0008,403.84,0.31,-1.0,0.0,138.27,24.05,24.60,36.30,0.04,-272.74,-272.74,-34,533,-940,14.3,2.4,-32.6,14.5,2.5,-32.2,5.73,2.46,-36.7,19.0
2012-12-29 00:53:00,0.0,1.9129,0.0009,403.89,0.25,-1.0,0.0,138.27,24.03,24.60,36.30,0.04,-272.74,-272.74,-34,533,-941,14.3,2.4,-32.6,14.5,2.5,-32.1,5.73,2.41,-36.5,19.1
2012-12-29 00:54:00,0.0,1.9135,0.0008,403.99,0.25,-1.0,0.0,138.26,24.01,24.60,36.29,0.04,-272.74,-272.74,-34,533,-940,14.3,2.4,-32.5,14.5,2.5,-32.2,5.73,2.54,-36.4,19.1
2012-12-29 00:55:00,0.0,1.9139,0.0008,404.06,0.31,-1.0,0.0,138.26,23.99,24.60,36.30,0.04,-272.73,-272.74,-34,533,-941,14.3,2.4,-32.5,14.5,2.5,-32.1,5.73,2.64,-36.3,19.2
2012-12-29 00:56:00,0.0,1.9139,0.0008,404.17,0.30,-1.0,0.0,138.26,23.97,24.60,36.30,0.04,-272.74,-272.74,-34,533,-940,14.4,2.4,-32.4,14.5,2.5,-32.1,5.73,2.62,-36.2,19.2
2012-12-29 00:57:00,0.0,1.9139,0.0009,404.15,0.26,-1.0,0.0,138.26,23.95,24.60,36.30,0.04,-272.74,-272.74,-34,533,-940,14.4,2.4,-32.5,14.6,2.5,-32.0,5.73,2.56,-36.1,19.3
2012-12-29 00:58:00,0.0,1.9153,0.0009,404.11,0.31,-1.0,0.0,138.26,23.93,24.60,36.30,0.04,-272.74,-272.73,-34,532,-941,14.4,2.4,-32.4,14.6,2.5,-32.1,5.73,2.51,-36.0,19.4
2012-12-29 00:59:00,0.0,1.9152,0.0009,404.14,0.24,-1.0,0.0,138.26,23.92,24.60,36.30,0.04,-272.74,-272.74,-33,533,-940,14.5,2.4,-32.4,14.6,2.5,-32.1,5.73,2.49,-35.9,19.4
2012-12-29 01:00:00,0.0,1.9153,0.0009,404.24,0.28,-1.0,0.0,138.26,23.90,24.60,36.30,0.04,-272.74,-272.74,-34,533,-941,14.5,2.4,-32.5,14.7,2.5,-32.1,5.73,2.50,-35.9,19.5
2012-12-29 01:01:00,0.0,1.9163,0.0009,404.23,0.29,-1.0,0.0,138.26,23.88,24.60,36.29,0.04,-272.74,-272.74,-33,533,-941,14.5,2.4,-32.5,14.7,2.5,-32.0,5.73,2.51,-35.8,19.5
2012-12-29 01:02:00,0.0,1.9167,0.0009,404.21,0.33,-1.0,0.0,138.26,23.86,24.60,36.30,0.04,-272.74,-272.74,-34,534,-939,14.6,2.4,-32.5,14.7,2.5,-32.0,5.73,2.52,-35.7,19.6
2012-12-29 01:03:00,0.0,1.9171,0.0008,404.25,0.27,-1.0,0.0,138.25,23.84,24.60,36.30,0.04,-272.74,-272.74,-34,534,-941,14.6,2.4,-32.5,14.8,2.5,-32.0,5.73,2.53,-35.6,19.7
2012-12-29 01:04:00,0.0,1.9165,0.0011,404.28,0.29,-1.0,0.0,138.26,23.82,24.60,36.29,0.04,-272.74,-272.74,-34,534,-940,14.7,2.4,-32.5,14.8,2.5,-32.0,5.73,2.54,-35.5,19.7
2012-12-29 01:05:00,0.0,1.9149,0.0011,403.97,0.27,-1.0,0.0,138.25,23.81,24.60,36.29,0.04,-272.74,-272.74,-34,534,-941,14.7,2.4,-32.5,14.8,2.5,-32.0,5.73,2.54,-35.4,19.8
2012-12-29 01:06:00,0.0,1.9148,0.0010,403.93,0.29,-1.0,0.0,138.25,23.79,24.60,36.29,0.04,-272.73,-272.74,-34,534,-940,14.8,2.4,-32.5,14.9,2.5,-32.0,5.73,2.54,-35.5,19.9
2012-12-29 01:07:00,0.0,1.9164,0.0012,404.08,0.26,-1.0,0.0,138.25,23.78,24.60,36.30,0.04,-272.74,-272.75,-34,534,-941,14.8,2.4,-32.5,14.9,2.5,-32.0,5.73,2.54,-35.2,20.0
2012-12-29 01:08:00,0.0,1.9138,0.0011,403.83,0.25,-1.0,0.0,138.25,23.77,24.60,36.30,0.04,-272.74,-272.74,-34,535,-940,14.9,2.3,-32.6,14.9,2.4,-32.1,5.73,2.51,-34.9,20.1
2012-12-29 01:09:00,0.0,1.9124,0.0009,403.70,0.26,-1.0,0.0,138.25,23.76,24.60,36.30,0.04,-272.74,-272.74,-34,535,-941,14.9,2.3,-32.7,15.0,2.4,-32.2,5.73,2.47,-34.9,20.2
2012-12-29 01:10:00,0.0,1.9122,0.0010,403.77,0.26,-1.0,0.0,138.25,23.75,24.60,36.30,0.04,-272.74,-272.74,-34,535,-940,14.9,2.3,-32.8,15.0,2.4,-32.3,5.73,2.44,-34.8,20.2
2012-12-29 01:11:00,0.0,1.9126,0.0009,403.77,0.26,-1.0,0.0,138.25,23.73,24.60,36.30,0.04,-272.74,-272.74,-34,535,-941,15.0,2.3,-32.8,15.1,2.4,-32.3,5.73,2.45,-34.7,20.3
2012-12-29 01:12:00,0.0,1.9127,0.0007,403.77,0.26,-1.0,0.0,138.25,23.72,24.60,36.30,0.04,-272.74,-272.74,-34,535,-940,15.0,2.3,-32.8,15.1,2.4,-32.3,5.73,2.51,-34.6,20.4
2012-12-29 01:13:00,0.0,1.9129,0.0008,403.83,0.23,-1.0,0.0,138.25,23.71,24.60,36.30,0.04,-272.74,-272.74,-34,536,-941,15.1,2.3,-32.8,15.1,2.4,-32.2,5.73,2.58,-34.6,20.5
2012-12-29 01:14:00,0.0,1.9136,0.0012,403.88,0.24,-1.0,0.0,138.25,23.69,24.60,36.29,0.04,-272.73,-272.74,-34,536,-940,15.1,2.3,-32.7,15.2,2.4,-32.2,5.73,2.58,-34.5,20.6
2012-12-29 01:15:00,0.0,1.9143,0.0006,403.92,0.25,-1.0,0.0,138.24,23.68,24.60,36.29,0.04,-272.74,-272.74,-34,536,-941,15.2,2.3,-32.7,15.2,2.4,-32.2,5.73,2.48,-34.4,20.6
2012-12-29 01:16:00,0.0,1.9142,0.0009,403.93,0.29,-1.0,0.0,138.24,23.67,24.60,36.30,0.04,-272.75,-272.74,-34,536,-940,15.3,2.3,-32.6,15.3,2.4,-32.1,5.73,2.40,-34.4,20.7
2012-12-29 01:17:00,0.0,1.9145,0.0008,403.97,0.24,-1.0,0.0,138.24,23.66,24.60,36.29,0.04,-272.74,-272.74,-34,536,-941,15.3,2.3,-32.6,15.3,2.4,-32.1,5.73,2.48,-34.3,20.8
2012-12-29 01:18:00,0.0,1.9154,0.0010,404.11,0.25,-1.0,0.0,138.24,23.65,24.60,36.29,0.04,-272.74,-272.74,-34,537,-941,15.4,2.3,-32.6,15.4,2.4,-32.1,5.73,2.60,-34.2,20.9
2012-12-29 01:19:00,0.0,1.9162,0.0009,404.00,0.32,-1.0,0.0,138.24,23.64,24.60,36.30,0.04,-272.74,-272.74,-34,537,-940,15.5,2.3,-32.5,15.4,2.4,-32.1,5.73,2.55,-34.2,20.9
2012-12-29 01:20:00,0.0,1.9170,0.0009,404.25,0.26,-1.0,0.0,138.24,23.63,24.60,36.29,0.04,-272.74,-272.75,-34,537,-941,15.5,2.3,-32.5,15.5,2.4,-32.0,5.73,2.39,-34.1,21.0
2012-12-29 01:21:00,0.0,1.9166,0.0009,404.25,0.28,-1.0,0.0,138.24,23.62,24.60,36.29,0.04,-272.75,-272.74,-34,537,-941,15.5,2.2,-32.6,15.5,2.3,-32.1,5.73,2.46,-34.0,21.1
2012-12-29 01:22:00,1.0,1.8916,0.0168,388.46,10.67,-1.0,0.0,138.24,23.61,24.61,36.30,0.04,-272.75,-272.74,-34,634,-941,15.6,2.2,-32.7,15.5,2.3,-32.2,5.73,2.58,-34.0,21.2
2012-12-29 01:23:00,1.0,1.8733,0.0007,376.44,0.28,-1.0,0.0,138.24,23.60,24.60,36.30,0.04,-272.74,-272.74,-34,633,-941,15.7,2.2,-32.7,15.6,2.3,-32.2,5.73,2.48,-34.0,21.2
2012-12-29 01:24:00,1.0,1.8732,0.0008,376.44,0.24,-1.0,0.0,138.24,23.59,24.61,36.30,0.04,-272.74,-272.74,-34,633,-941,15.7,2.2,-32.6,15.6,2.3,-32.1,5.73,2.38,-33.9,21.3
2012-12-29 01:25:00,1.0,1.8733,0.0008,376.43,0.29,-1.0,0.0,138.24,23.59,24.61,36.31,0.04,-272.74,-272.74,-34,633,-941,15.8,2.2,-32.5,15.7,2.3,-32.1,5.73,2.58,-33.8,21.4
2012-12-29 01:26:00,1.0,1.8737,0.0008,376.36,0.26,-1.0,0.0,138.24,23.58,24.61,36.31,0.04,-272.73,-272.75,-35,633,-941,15.8,2.2,-32.4,15.8,2.3,-32.0,5.73,2.54,-33.8,21.5
2012-12-29 01:27:00,1.0,1.8741,0.0008,376.34,0.27,-1.0,0.0,138.24,23.58,24.61,36.31,0.04,-272.74,-272.74,-34,633,-941,15.9,2.2,-32.4,15.8,2.3,-31.9,5.73,2.37,-33.7,21.6
2012-12-29 01:28:00,1.0,1.8745,0.0009,376.41,0.32,-1.0,0.0,138.24,23.58,24.61,36.30,0.04,-272.74,-272.74,-34,633,-941,16.0,2.2,-32.3,15.8,2.3,-31.9,5.73,2.57,-33.6,21.6
2012-12-29 01:29:00,4.0,1.8461,0.0193,383.90,5.08,-1.0,0.0,138.24,23.58,24.60,36.30,0.04,-272.74,-272.74,-34,626,-941,16.0,2.2,-32.3,15.9,2.3,-31.9,5.73,2.47,-33.6,21.7
2012-12-29 01:30:00,4.0,1.8250,0.0010,389.64,0.25,-1.0,0.0,138.24,23.57,24.60,36.30,0.04,-272.74,-272.74,-35,622,-941,16.1,2.2,-32.2,16.0,2.3,-31.8,5.73,2.38,-33.5,21.8
2012-12-29 01:31:00,4.0,1.8246,0.0008,389.74,0.26,-1.0,0.0,138.24,23.57,24.61,36.30,0.04,-272.74,-272.74,-34,621,-941,16.2,2.2,-32.2,16.0,2.4,-31.7,5.73,2.62,-33.4,21.8
2012-12-29 01:32:00,4.0,1.8248,0.0010,389.77,0.24,-1.0,0.0,138.23,23.56,24.61,36.30,0.04,-272.74,-272.74,-35,620,-941,16.2,2.2,-32.1,16.1,2.4,-31.7,5.73,2.40,-33.3,21.9
2012-12-29 01:33:00,4.0,1.8252,0.0009,389.91,0.30,-1.0,0.0,138.23,23.56,24.61,36.29,0.04,-272.74,-272.75,-35,619,-941,16.3,2.3,-32.0,16.2,2.4,-31.5,5.73,2.50,-33.3,22.0
2012-12-29 01:34:00,4.0,1.8253,0.0009,389.85,0.28,-1.0,0.0,138.23,23.57,24.61,36.30,0.04,-272.74,-272.74,-34,619,-941,16.4,2.3,-31.9,16.2,2.4,-31.4,5.73,2.55,-33.2,22.1
2012-12-29 01:35:00,4.0,1.8256,0.0009,389.92,0.26,-1.0,0.0,138.23,23.57,24.60,36.29,0.04,-272.74,-272.74,-35,619,-941,16.4,2.3,-31.8,16.3,2.4,-31.4,5.73,2.37,-33.2,22.2
2012-12-29 01:36:00,5.0,1.7242,0.0647,366.66,14.81,-1.0,0.0,138.23,23.57,24.60,36.30,0.04,-272.74,-272.74,-35,636,-942,16.5,2.3,-31.8,16.3,2.4,-31.3,5.73,2.59,-33.1,22.3
2012-12-29 01:37:00,5.0,1.6551,0.0008,350.96,0.23,-1.0,0.0,138.23,23.56,24.61,36.32,0.04,-272.74,-272.74,-34,649,-942,16.5,2.3,-31.7,16.4,2.4,-31.2,5.73,2.36,-33.0,22.3
2012-12-29 01:38:00,5.0,1.6554,0.0007,350.98,0.27,-1.0,0.0,138.23,23.56,24.61,36.31,0.04,-272.74,-272.74,-35,650,-942,16.6,2.3,-31.7,16.5,2.4,-31.2,5.73,2.57,-33.0,22.4
2012-12-29 01:39:00,5.0,1.6555,0.0009,350.97,0.24,-1.0,0.0,138.23,23.56,24.61,36.31,0.04,-272.74,-272.74,-35,651,-942,16.7,2.3,-31.7,16.5,2.4,-31.2,5.73,2.44,-32.9,22.5
2012-12-29 01:40:00,5.0,1.6554,0.0009,350.93,0.27,-1.0,0.0,138.23,23.56,24.61,36.32,0.04,-272.74,-272.74,-35,646,-942,16.7,2.3,-31.7,16.6,2.4,-31.2,5.73,2.48,-32.9,22.5
2012-12-29 01:41:00,5.0,1.6553,0.0009,350.96,0.23,-1.0,0.0,138.23,23.56,24.61,36.31,0.04,-272.74,-272.74,-35,639,-942,16.8,2.2,-31.7,16.6,2.4,-31.3,5.73,2.53,-32.8,22.6
2012-12-29 01:42:00,5.0,1.6549,0.0008,350.92,0.25,-1.0,0.0,138.23,23.55,24.61,36.32,0.04,-272.74,-272.74,-35,637,-942,16.9,2.2,-31.8,16.7,2.3,-31.3,5.73,2.41,-32.8,22.6
2012-12-29 01:43:00,2.0,1.7724,0.0753,377.25,17.02,-1.0,0.0,138.23,23.55,24.60,36.31,0.04,-272.74,-272.74,-36,609,-942,16.9,2.2,-31.8,16.8,2.3,-31.3,5.73,2.53,-32.7,22.7
2012-12-29 01:44:00,2.0,1.8520,0.0010,395.57,0.33,-1.0,0.0,138.23,23.55,24.60,36.29,0.04,-272.74,-272.74,-35,610,-942,17.0,2.2,-31.9,16.8,2.3,-31.4,5.73,2.38,-32.6,22.8
2012-12-29 01:45:00,2.0,1.8520,0.0009,395.68,0.26,-1.0,0.0,138.22,23.55,24.60,36.29,0.04,-272.74,-272.74,-35,611,-942,17.0,2.2,-32.0,16.9,2.3,-31.5,5.73,2.58,-32.6,22.8
2012-12-29 01:46:00,2.0,1.8528,0.0010,395.79,0.24,-1.0,0.0,138.23,23.55,24.60,36.29,0.04,-272.74,-272.74,-36,611,-942,17.1,2.1,-32.0,16.9,2.3,-31.5,5.73,2.38,-32.6,22.9
2012-12-29 01:47:00,2.0,1.8528,0.0010,395.78,0.21,-1.0,0.0,138.22,23.56,24.60,36.29,0.04,-272.74,-272.74,-35,612,-942,17.2,2.1,-32.1,17.0,2.2,-31.6,5.73,2.59,-32.5,22.9
2012-12-29 01:48:00,2.0,1.8532,0.0010,395.68,0.30,-1.0,0.0,138.23,23.56,24.61,36.30,0.04,-272.74,-272.74,-36,612,-942,17.2,2.1,-32.2,17.0,2.2,-31.7,5.73,2.38,-32.5,23.0
2012-12-29 01:49:00,2.0,1.8530,0.0009,395.82,0.29,-1.0,0.0,138.22,23.57,24.60,36.29,0.04,-272.74,-272.74,-35,612,-942,17.3,2.0,-32.4,17.1,2.2,-31.8,5.73,2.58,-32.5,23.0
2012-12-29 01:50:00,0.0,1.8923,0.0269,400.94,3.48,-1.0,0.0,138.22,23.58,24.60,36.29,0.04,-272.74,-272.74,-36,538,-942,17.3,2.0,-32.4,17.2,2.2,-31.8,5.73,2.43,-32.4,23.1
2012-12-29 01:51:00,0.0,1.9222,0.0011,404.72,0.28,-1.0,0.0,138.22,23.59,24.60,36.28,0.04,-272.74,-272.74,-36,539,-942,17.4,2.0,-32.5,17.2,2.1,-31.9,5.73,2.59,-32.4,23.1
2012-12-29 01:52:00,0.0,1.9218,0.0009,404.71,0.26,-1.0,0.0,138.22,23.59,24.60,36.29,0.04,-272.74,-272.74,-36,539,-943,17.4,2.0,-32.6,17.3,2.1,-32.0,5.73,2.38,-32.3,23.2
2012-12-29 01:53:00,0.0,1.9219,0.0011,404.70,0.22,-1.0,0.0,138.22,23.60,24.60,36.29,0.04,-272.74,-272.74,-36,540,-943,17.5,2.0,-32.7,17.3,2.1,-32.1,5.73,2.58,-32.3,23.2
2012-12-29 01:54:00,0.0,1.9213,0.0009,404.75,0.25,-1.0,0.0,138.22,23.60,24.60,36.29,0.04,-272.74,-272.74,-36,541,-943,17.5,1.9,-32.8,17.4,2.0,-32.3,5.73,2.40,-32.3,23.3
2012-12-29 01:55:00,0.0,1.9213,0.0010,404.68,0.31,-1.0,0.0,138.22,23.60,24.60,36.30,0.04,-272.74,-272.74,-36,541,-943,17.6,1.9,-32.9,17.4,2.0,-32.3,5.73,2.56,-32.3,23.3
2012-12-29 01:56:00,0.0,1.9213,0.0009,404.86,0.28,-1.0,0.0,138.22,23.60,24.60,36.29,0.04,-272.74,-272.74,-36,541,-943,17.6,1.9,-32.8,17.5,2.0,-32.3,5.73,2.42,-32.3,23.4
2012-12-29 01:57:00,0.0,1.9209,0.0009,404.75,0.26,-1.0,0.0,138.22,23.59,24.61,36.29,0.04,-272.75,-272.74,-36,541,-943,17.7,1.9,-32.8,17.5,2.0,-32.3,5.73,2.52,-32.3,23.4
2012-12-29 01:58:00,0.0,1.9212,0.0010,404.63,0.25,-1.0,0.0,138.22,23.60,24.60,36.30,0.04,-272.74,-272.74,-36,542,-943,17.7,1.9,-32.7,17.6,2.0,-32.2,5.73,2.47,-32.3,23.5
2012-12-29 01:59:00,0.0,1.9214,0.0010,404.79,0.26,-1.0,0.0,138.22,23.60,24.60,36.29,0.04,-272.74,-272.74,-37,542,-943,17.8,1.9,-32.6,17.6,2.0,-32.1,5.73,2.46,-32.2,23.5
2012-12-29 02:00:00,0.0,1.9215,0.0009,404.90,0.29,-1.0,0.0,138.22,23.61,24.60,36.29,0.04,-272.74,-272.74,-36,543,-943,17.8,2.0,-32.5,17.7,2.1,-32.0,5.73,2.54,-32.2,23.6
2012-12-29 02:01:00,0.0,1.9216,0.0009,404.90,0.28,-1.0,0.0,138.22,23.62,24.61,36.29,0.04,-272.74,-272.75,-37,543,-943,17.9,2.0,-32.4,17.7,2.1,-31.9,5.73,2.40,-32.2,23.6
2012-12-29 02:02:00,0.0,1.9211,0.0009,404.86,0.29,-1.0,0.0,138.21,23.62,24.61,36.29,0.04,-272.74,-272.74,-36,543,-943,17.9,2.0,-32.3,17.7,2.1,-31.9,5.73,2.59,-32.2,23.6
2012-12-29 02:03:00,0.0,1.9213,0.0010,404.74,0.28,-1.0,0.0,138.21,23.63,24.60,36.30,0.04,-272.74,-272.74,-37,543,-943,18.0,2.0,-32.3,17.8,2.1,-31.8,5.73,2.36,-32.2,23.7
2012-12-29 02:04:00,0.0,1.9221,0.0009,404.87,0.24,-1.0,0.0,138.22,23.64,24.60,36.29,0.04,-272.74,-272.75,-36,544,-943,18.0,2.0,-32.3,17.8,2.1,-31.8,5.73,2.60,-32.2,23.7
2012-12-29 02:05:00,0.0,1.9226,0.0009,405.02,0.22,-1.0,0.0,138.21,23.65,24.60,36.30,0.04,-272.74,-272.75,-37,544,-943,18.1,2.0,-32.3,17.9,2.1,-31.8,5.73,2.38,-32.2,23.7
2012-12-29 02:06:00,0.0,1.9220,0.0010,404.90,0.31,-1.0,0.0,138.21,23.66,24.60,36.30,0.04,-272.74,-272.74,-36,544,-943,18.1,1.9,-32.4,17.9,2.0,-31.9,5.73,2.54,-32.2,23.8
2012-12-29 02:07:00,0.0,1.9230,0.0010,404.97,0.24,-1.0,0.0,138.21,23.67,24.60,36.30,0.04,-272.74,-272.75,-37,544,-943,18.1,1.9,-32.4,17.9,2.0,-32.0,5.73,2.48,-32.1,23.8
2012-12-29 02:08:00,0.0,1.9231,0.0010,405.13,0.27,-1.0,0.0,138.21,23.67,24.60,36.29,0.04,-272.74,-272.75,-36,545,-943,18.2,1.9,-32.5,18.0,2.0,-32.0,5.73,2.43,-32.1,23.8
2012-12-29 02:09:00,0.0,1.9235,0.0010,405.10,0.24,-1.0,0.0,138.21,23.67,24.60,36.29,0.04,-272.74,-272.74,-37,545,-944,18.2,1.9,-32.6,18.1,2.0,-32.1,5.73,2.58,-32.1,23.8
2012-12-29 02:10:00,0.0,1.9237,0.0008,405.21,0.26,-1.0,0.0,138.21,23.68,24.60,36.28,0.04,-272.74,-272.74,-37,545,-944,18.2,1.9,-32.6,18.1,2.0,-32.1,5.73,2.36,-32.0,23.9
2012-12-29 02:11:00,0.0,1.9235,0.0009,405.16,0.28,-1.0,0.0,138.21,23.69,24.60,36.28,0.04,-272.74,-272.75,-37,545,-944,18.3,1.9,-32.7,18.1,2.0,-32.2,5.73,2.58,-32.0,23.9
2012-12-29 02:12:00,0.0,1.9236,0.0011,405.22,0.31,-1.0,0.0,138.21,23.70,24.60,36.29,0.04,-272.74,-272.74,-37,545,-944,18.3,1.8,-32.8,18.2,1.9,-32.3,5.73,2.42,-32.0,23.9
2012-12-29 02:13:00,0.0,1.9235,0.0010,405.09,0.28,-1.0,0.0,138.21,23.70,24.60,36.30,0.04,-272.74,-272.74,-37,545,-944,18.4,1.8,-32.8,18.2,1.9,-32.3,5.73,2.47,-32.0,24.0
2012-12-29 02:14:00,0.0,1.9242,0.0009,405.21,0.29,-1.0,0.0,138.21,23.71,24.60,36.29,0.04,-272.74,-272.74,-37,545,-944,18.4,1.8,-32.8,18.2,1.9,-32.5,5.73,2.56,-32.0,24.0
2012-12-29 02:15:00,0.0,1.9242,0.0010,405.24,0.32,-1.0,0.0,138.21,23.73,24.60,36.29,0.04,-272.74,-272.74,-37,545,-944,18.4,1.8,-32.9,18.3,1.9,-32.4,5.73,2.37,-32.0,24.0
2012-12-29 02:16:00,0.0,1.9238,0.0011,405.28,0.27,-1.0,0.0,138.21,23.73,24.61,36.30,0.04,-272.74,-272.74,-37,545,-944,18.5,1.8,-32.9,18.3,1.9,-32.4,5.73,2.58,-32.0,24.0
2012-12-29 02:17:00,0.0,1.9241,0.0008,405.32,0.28,-1.0,0.0,138.21,23.74,24.60,36.29,0.04,-272.74,-272.74,-37,546,-944,18.5,1.8,-33.0,18.3,1.9,-32.5,5.73,2.43,-31.9,24.1
2012-12-29 02:18:00,0.0,1.9237,0.0010,405.26,0.25,-1.0,0.0,138.21,23.76,24.60,36.29,0.04,-272.74,-272.75,-37,546,-944,18.5,1.7,-33.1,18.4,1.9,-32.7,5.73,2.45,-32.0,24.1
2012-12-29 02:19:00,0.0,1.9233,0.0010,405.21,0.26,-1.0,0.0,138.21,23.77,24.61,36.29,0.04,-272.74,-272.75,-37,546,-944,18.6,1.7,-33.3,18.4,1.8,-32.8,5.73,2.57,-32.0,24.1
2012-12-29 02:20:00,0.0,1.9236,0.0010,404.95,0.30,-1.0,0.0,138.21,23.77,24.60,36.30,0.04,-272.74,-272.74,-37,546,-944,18.6,1.7,-33.4,18.4,1.8,-33.0,5.73,2.37,-31.9,24.2